Date String (YYYY-MM-DD hh:mm:ss) UTC,Instrument flags,absolute air pressure of the measurement (hPa),sample flow rate (lpm),inlet stack bypass flow (lpm),air temperature of the measurement (°C),ambient temperature measured by the external sensor (°C),aerosol sample conditioner tube jacket temperature (°C),OPC LED temperature (°C),internal box temperature (°C),relative humidity of the measurement (%),span deviation,mass concentration of particles derived from Lorenz-Mie calculation of OPC scattering (μg/m³),mass concentration of particles derived from Lorenz-Mie calculation of OPC scattering (μg/m³),mass concentration of particles derived from Lorenz-Mie calculation of OPC scattering (μg/m³)
DateTimeUTC,F1_M11,P_M11,Q1_M11,Q2_M11,T1_M11,T2_M11,T3_M11,T4_M11,T5_M11,U1_M11,ZSPAN_M11,X2_M11,X0_M11,X1_M11
2023-07-20 13:00:00,SystemResetWarning,0837.7,4.99,000.00,030.2,028.3,000.0,038.6,031.4,33.8,0000.0,0001.98,0004.07,0001.21
2023-07-20 13:01:00,SystemResetWarning,0837.7,5.01,000.00,030.2,028.3,000.0,038.6,031.4,33.5,0000.0,0002.01,0004.13,0001.20
2023-07-20 13:02:00,SystemResetWarning,0837.8,5.00,000.00,030.2,028.3,000.0,038.6,031.4,33.2,0000.0,0001.99,0004.05,0001.20
2023-07-20 13:03:00,SystemResetWarning,0837.7,5.00,000.00,030.2,028.3,000.0,038.6,031.4,33.2,0000.0,0001.97,0003.88,0001.21
2023-07-20 13:04:00,SystemResetWarning,0837.8,5.01,000.00,030.2,028.3,000.0,038.6,031.4,32.9,0000.0,0001.99,0003.87,0001.23
2023-07-20 13:05:00,SystemResetWarning,0837.8,5.00,000.00,030.2,028.3,000.0,038.6,031.4,32.3,0000.0,0001.99,0003.91,0001.22
2023-07-20 13:06:00,SystemResetWarning,0837.8,5.00,000.00,030.1,028.3,000.0,038.6,031.4,31.9,0000.0,0001.96,0003.82,0001.23
2023-07-20 13:07:00,SystemResetWarning,0837.8,4.99,000.00,030.1,028.3,000.0,038.6,031.5,31.8,0000.0,0001.92,0003.70,0001.22
2023-07-20 13:08:00,SystemResetWarning,0837.8,5.01,000.00,030.1,028.3,000.0,038.6,031.5,31.7,0000.0,0001.91,0003.62,0001.22
2023-07-20 13:09:00,SystemResetWarning,0837.8,5.01,000.00,030.1,028.3,000.0,038.6,031.5,32.0,0000.0,0001.94,0003.52,0001.22
2023-07-20 13:10:00,SystemResetWarning,0837.7,5.01,000.00,030.1,028.4,000.0,038.6,031.5,32.3,0000.0,0001.97,0003.40,0001.21
2023-07-20 13:11:00,SystemResetWarning,0837.7,4.99,000.00,030.1,028.4,000.0,038.6,031.5,32.1,0000.0,0002.01,0003.53,0001.23
2023-07-20 13:12:00,SystemResetWarning,0837.8,4.99,000.00,030.1,028.4,000.0,038.6,031.5,32.0,0000.0,0001.97,0003.39,0001.23
2023-07-20 13:13:00,SystemResetWarning,0837.8,4.99,000.00,030.1,028.4,000.0,038.6,031.5,31.7,0000.0,0002.00,0003.84,0001.24
2023-07-20 13:14:00,SystemResetWarning,0837.9,5.00,000.00,030.1,028.4,000.0,038.6,031.5,31.4,0000.0,0002.02,0004.33,0001.22
2023-07-20 13:15:00,SystemResetWarning,0838.0,5.01,000.00,030.1,028.5,000.0,038.6,031.5,31.9,0000.0,0002.05,0004.41,0001.21
2023-07-20 13:16:00,SystemResetWarning,0838.0,5.01,000.00,030.1,028.5,000.0,038.6,031.5,31.9,0000.0,0002.08,0005.27,0001.22
2023-07-20 13:17:00,SystemResetWarning,0838.0,5.00,000.00,030.1,028.6,000.0,038.6,031.5,32.0,0000.0,0002.14,0005.49,0001.22
2023-07-20 13:18:00,SystemResetWarning,0838.0,5.00,000.00,030.1,028.6,000.0,038.6,031.5,32.0,0000.0,0002.20,0005.65,0001.22
2023-07-20 13:19:00,SystemResetWarning,0838.0,4.99,000.00,030.1,028.6,000.0,038.6,031.6,31.7,0000.0,0002.24,0005.97,0001.21
2023-07-20 13:20:00,SystemResetWarning,0837.9,5.00,000.00,030.2,028.6,000.0,038.6,031.6,32.1,0000.0,0002.21,0006.50,0001.20
2023-07-20 13:21:00,SystemResetWarning,0838.0,4.99,000.00,030.1,027.1,000.0,038.5,031.3,31.5,0000.0,0002.20,0006.55,0001.21
2023-07-20 13:22:00,SystemResetWarning,0838.0,5.00,000.00,030.0,025.7,000.0,038.4,031.1,32.5,0000.0,0002.17,0006.45,0001.21
2023-07-20 13:23:00,SystemResetWarning,0837.9,5.00,000.00,029.9,025.4,000.0,038.3,030.8,32.8,0000.0,0002.16,0006.38,0001.20
2023-07-20 13:24:00,SystemResetWarning,0838.0,5.01,000.00,029.7,025.7,000.0,038.3,030.6,33.2,0000.0,0002.06,0005.90,0001.17
2023-07-20 13:25:00,SystemResetWarning,0838.0,5.00,000.00,029.7,026.0,000.0,038.3,030.7,34.4,0000.0,0002.01,0005.42,0001.16
2023-07-20 13:26:00,SystemResetWarning,0838.0,4.99,000.00,029.7,026.4,000.0,038.3,030.8,33.8,0000.0,0001.97,0005.57,0001.15
2023-07-20 13:27:00,SystemResetWarning,0837.9,4.99,000.00,029.7,026.8,000.0,038.3,030.9,34.0,0000.0,0001.93,0004.89,0001.14
2023-07-20 13:28:00,SystemResetWarning,0837.8,5.00,000.00,029.7,027.1,000.0,038.3,030.9,34.7,0000.0,0001.86,0004.72,0001.13
2023-07-20 13:29:00,SystemResetWarning,0837.8,5.02,000.00,029.7,027.3,000.0,038.3,031.0,33.8,0000.0,0001.85,0004.75,0001.13
2023-07-20 13:30:00,SystemResetWarning,0837.8,4.98,000.00,029.8,027.5,000.0,038.3,031.1,32.2,0000.0,0001.81,0004.39,0001.14
2023-07-20 13:31:00,SystemResetWarning,0837.8,5.01,000.00,029.8,027.7,000.0,038.2,031.1,31.6,0000.0,0001.79,0003.84,0001.14
2023-07-20 13:32:00,SystemResetWarning,0837.7,5.01,000.00,029.8,027.8,000.0,038.2,031.2,33.2,0000.0,0001.77,0003.79,0001.13
2023-07-20 13:33:00,SystemResetWarning,0837.7,4.99,000.00,029.9,027.9,000.0,038.3,031.2,33.1,0000.0,0001.74,0003.76,0001.12
2023-07-20 13:34:00,SystemResetWarning,0837.7,4.99,000.00,029.9,028.0,000.0,038.3,031.2,33.1,0000.0,0001.76,0003.84,0001.12
2023-07-20 13:35:00,SystemResetWarning,0837.7,5.00,000.00,029.9,028.1,000.0,038.3,031.2,32.5,0000.0,0001.82,0004.01,0001.13
2023-07-20 13:36:00,SystemResetWarning,0837.8,5.01,000.00,029.9,028.2,000.0,038.3,031.3,33.1,0000.0,0001.81,0003.77,0001.12
2023-07-20 13:37:00,SystemResetWarning,0837.8,5.00,000.00,029.9,028.3,000.0,038.3,031.3,32.7,0000.0,0001.77,0003.86,0001.12
2023-07-20 13:38:00,SystemResetWarning,0837.9,5.01,000.00,029.9,028.3,000.0,038.3,031.3,33.4,0000.0,0001.75,0003.90,0001.11
2023-07-20 13:39:00,SystemResetWarning,0838.0,5.01,000.00,030.0,028.4,000.0,038.3,031.3,33.5,0000.0,0001.80,0003.92,0001.11
2023-07-20 13:40:00,SystemResetWarning,0838.0,5.00,000.00,030.0,028.4,000.0,038.4,031.4,32.3,0000.0,0001.76,0003.81,0001.10
2023-07-20 13:41:00,SystemResetWarning,0838.0,5.00,000.00,030.0,028.5,000.0,038.4,031.4,31.8,0000.0,0001.79,0003.88,0001.09
2023-07-20 13:42:00,SystemResetWarning,0837.9,4.99,000.00,030.0,028.5,000.0,038.4,031.4,32.0,0000.0,0001.82,0003.97,0001.08
2023-07-20 13:43:00,SystemResetWarning,0837.8,5.00,000.00,030.0,028.5,000.0,038.4,031.4,31.5,0000.0,0001.77,0003.81,0001.06
2023-07-20 13:44:00,SystemResetWarning,0837.9,5.00,000.00,030.1,028.6,000.0,038.4,031.5,31.2,0000.0,0001.73,0003.68,0001.04
2023-07-20 13:45:00,SystemResetWarning,0837.8,5.00,000.00,030.1,028.6,000.0,038.4,031.5,32.2,0000.0,0001.70,0003.69,0001.03
2023-07-20 13:46:00,SystemResetWarning,0837.8,5.00,000.00,030.1,028.7,000.0,038.4,031.5,31.6,0000.0,0001.64,0003.51,0001.02
2023-07-20 13:47:00,SystemResetWarning,0837.8,5.00,000.00,030.1,028.7,000.0,038.5,031.5,31.4,0000.0,0001.63,0003.54,0001.02
2023-07-20 13:48:00,SystemResetWarning,0837.8,5.00,000.00,030.1,027.5,000.0,038.4,031.4,31.2,0000.0,0001.65,0003.31,0001.02
2023-07-20 13:49:00,SystemResetWarning,0837.8,5.01,000.00,030.0,025.9,000.0,038.2,031.2,31.0,0000.0,0001.66,0003.10,0001.02
2023-07-20 13:50:00,SystemResetWarning,0837.8,4.99,000.00,029.9,025.5,000.0,038.2,031.0,30.7,0000.0,0001.62,0002.96,0001.03
2023-07-20 13:51:00,SystemResetWarning,0837.8,5.02,000.00,029.8,025.7,000.0,038.2,030.8,31.3,0000.0,0001.60,0003.27,0001.03
2023-07-20 13:52:00,SystemResetWarning,0837.8,5.00,000.00,029.7,026.1,000.0,038.2,030.8,31.8,0000.0,0001.58,0003.29,0001.03
2023-07-20 13:53:00,SystemResetWarning,0837.8,5.00,000.00,029.7,026.4,000.0,038.2,030.9,32.0,0000.0,0001.58,0003.98,0001.04
2023-07-20 13:54:00,SystemResetWarning,0837.7,5.00,000.00,029.7,026.8,000.0,038.2,031.0,32.7,0000.0,0001.59,0004.19,0001.06
2023-07-20 13:55:00,SystemResetWarning,0837.7,5.01,000.00,029.7,027.1,000.0,038.2,031.0,32.4,0000.0,0001.62,0004.20,0001.07
2023-07-20 13:56:00,SystemResetWarning,0837.7,5.01,000.00,029.7,027.4,000.0,038.2,031.0,32.7,0000.0,0001.59,0004.14,0001.06
2023-07-20 13:57:00,SystemResetWarning,0837.6,5.00,000.00,029.7,027.6,000.0,038.2,031.1,31.7,0000.0,0001.60,0004.47,0001.05
2023-07-20 13:58:00,SystemResetWarning,0837.7,4.99,000.00,029.7,027.8,000.0,038.2,031.1,32.4,0000.0,0001.59,0004.43,0001.05
2023-07-20 13:59:00,SystemResetWarning,0837.6,5.00,000.00,029.7,027.9,000.0,038.2,031.2,31.5,0000.0,0001.57,0004.37,0001.04
